Torna al catalogo

CZ-6A DEB

AttivoSSO
NORAD 54560·DEBRIS·🇨🇳 China

Lanciato Nov 11, 2022 da Taiyuan Satellite Launch Center

Loading…

Prossimi Passaggi (prossime 24 ore)

TLE

AggiornatoSource: Space-Track

Epoca: Sep 14, 2026, 10:39 UTC

1 54560U 22151LL  26257.44421291  .00000026  00000-0  39790-4 0  9990
2 54560  98.8554 250.8909 0060442 114.0105 246.7408 14.08357045197018

Traccia CZ-6A DEB in tempo reale con AllMySat

Download on the App Store